START_TIME,STEP,MOV.,AL01,t_acc.,AL02,t_acc.,E37,t_acc.,H21,t_acc.
1980-11-16 06:00:22.900 ,5,0,0.,24.0,0.,24.0,1.,24.0,0.,24.0
1980-11-16 06:00:46.900 ,6,1,0.,24.0,0.,24.0,1.,24.0,0.,24.0
1980-11-16 06:01:10.900 ,6,0,0.,24.0,0.,24.0,1.,24.0,0.,24.0
1980-11-16 06:01:34.900 ,7,1,0.,24.0,0.,24.0,0.,24.0,0.,24.0
1980-11-16 06:01:58.900 ,7,0,18.,24.0,0.,24.0,0.,24.0,0.,24.0
1980-11-16 06:02:22.900 ,7,1,9.,24.0,0.,24.0,1.,24.0,0.,24.0
1980-11-16 06:02:46.900 ,7,0,12.,24.0,0.,24.0,0.,24.0,0.,24.0
1980-11-16 06:03:10.900 ,6,1,8.,24.0,0.,24.0,0.,24.0,0.,24.0
1980-11-16 06:03:34.900 ,6,0,0.,24.0,0.,24.0,1.,24.0,0.,24.0
1980-11-16 06:03:58.900 ,5,1,0.,24.0,0.,24.0,0.,24.0,0.,24.0
1980-11-16 06:04:22.900 ,5,0,0.,24.0,0.,24.0,0.,24.0,0.,24.0
1980-11-16 06:04:46.900 ,4,1,0.,24.0,0.,24.0,2.,24.0,0.,24.0
1980-11-16 06:05:10.900 ,4,0,0.,24.0,0.,24.0,0.,24.0,0.,24.0
1980-11-16 06:05:34.900 ,3,1,0.,24.0,0.,24.0,0.,24.0,0.,24.0
1980-11-16 06:05:58.900 ,3,0,0.,24.0,0.,24.0,0.,24.0,0.,24.0
1980-11-16 06:06:22.900 ,2,1,0.,24.0,0.,24.0,1.,24.0,0.,24.0
1980-11-16 06:06:46.900 ,2,0,0.,24.0,0.,24.0,0.,24.0,0.,24.0
1980-11-16 06:07:10.900 ,1,1,0.,24.0,0.,24.0,0.,24.0,0.,24.0
1980-11-16 06:07:34.900 ,1,0,1.,24.0,0.,24.0,0.,24.0,0.,24.0
1980-11-16 06:07:58.900 ,0,1,0.,24.0,0.,24.0,0.,24.0,0.,24.0
1980-11-16 06:08:22.900 ,0,0,0.,24.0,0.,24.0,1.,24.0,0.,24.0
1980-11-16 06:08:46.900 ,0,1,0.,24.0,0.,24.0,1.,24.0,0.,24.0
1980-11-16 06:09:10.900 ,0,0,0.,24.0,1.,24.0,0.,24.0,0.,24.0
1980-11-16 06:09:34.900 ,1,1,0.,24.0,0.,24.0,0.,24.0,0.,24.0
1980-11-16 06:09:58.900 ,1,0,0.,24.0,0.,24.0,0.,24.0,0.,24.0
1980-11-16 06:10:22.900 ,2,1,0.,24.0,0.,24.0,0.,24.0,0.,24.0
1980-11-16 06:10:46.900 ,2,0,0.,24.0,0.,24.0,1.,24.0,0.,24.0
1980-11-16 06:11:10.900 ,3,1,0.,24.0,0.,24.0,1.,24.0,0.,24.0
1980-11-16 06:11:34.900 ,3,0,0.,24.0,0.,24.0,1.,24.0,0.,24.0
1980-11-16 06:11:58.900 ,4,1,0.,24.0,0.,24.0,0.,24.0,0.,24.0
1980-11-16 06:12:22.900 ,4,0,0.,24.0,0.,24.0,0.,24.0,0.,24.0
1980-11-16 06:12:46.900 ,5,1,0.,24.0,0.,24.0,0.,24.0,0.,24.0
1980-11-16 06:13:10.900 ,5,0,0.,24.0,0.,24.0,0.,24.0,0.,24.0
1980-11-16 06:14:22.900 ,0,0,2.,24.0,0.,24.0,0.,24.0,0.,24.0
1980-11-16 06:14:46.900 ,0,0,10.,24.0,0.,24.0,0.,24.0,0.,24.0
1980-11-16 06:15:10.900 ,7,1,8.,24.0,0.,24.0,1.,24.0,0.,24.0
1980-11-16 06:15:34.900 ,7,0,10.,24.0,0.,24.0,1.,24.0,0.,24.0
1980-11-16 06:15:58.900 ,6,1,6.,24.0,0.,24.0,0.,24.0,0.,24.0
1980-11-16 06:16:22.900 ,6,0,0.,24.0,0.,24.0,2.,24.0,0.,24.0
1980-11-16 06:16:46.900 ,5,1,0.,24.0,0.,24.0,1.,24.0,0.,24.0
1980-11-16 06:17:10.900 ,5,0,0.,24.0,0.,24.0,0.,24.0,0.,24.0
1980-11-16 06:17:34.900 ,4,1,0.,24.0,0.,24.0,0.,24.0,0.,24.0
1980-11-16 06:17:58.900 ,4,0,,0,,0,,0,,0
1980-11-16 06:18:22.900 ,3,1,0.,24.0,0.,24.0,0.,24.0,0.,24.0
1980-11-16 06:18:46.900 ,3,0,0.,24.0,0.,24.0,1.,24.0,0.,24.0
1980-11-16 06:19:10.900 ,2,1,0.,24.0,0.,24.0,0.,24.0,0.,24.0
1980-11-16 06:19:34.900 ,2,0,0.,24.0,0.,24.0,0.,24.0,0.,24.0
1980-11-16 06:19:58.900 ,1,1,0.,24.0,0.,24.0,0.,24.0,0.,24.0
1980-11-16 06:20:22.900 ,1,0,0.,24.0,0.,24.0,0.,24.0,0.,24.0
1980-11-16 06:20:46.900 ,0,1,0.,24.0,0.,24.0,1.,24.0,0.,24.0
1980-11-16 06:21:10.900 ,0,0,0.,24.0,0.,24.0,1.,24.0,0.,24.0
1980-11-16 06:21:34.900 ,0,1,0.,24.0,0.,24.0,0.,24.0,0.,24.0
1980-11-16 06:21:58.900 ,0,0,0.,24.0,0.,24.0,0.,24.0,0.,24.0
1980-11-16 06:22:22.900 ,1,1,0.,24.0,0.,24.0,0.,24.0,0.,24.0
1980-11-16 06:22:46.900 ,1,0,0.,24.0,1.,24.0,0.,24.0,0.,24.0
1980-11-16 06:23:10.900 ,2,1,0.,24.0,0.,24.0,1.,24.0,0.,24.0
1980-11-16 06:23:34.900 ,2,0,0.,24.0,0.,24.0,0.,24.0,0.,24.0
1980-11-16 06:23:58.900 ,3,1,0.,24.0,0.,24.0,0.,24.0,0.,24.0
1980-11-16 06:24:22.900 ,3,0,0.,24.0,0.,24.0,2.,24.0,0.,24.0
1980-11-16 06:24:46.900 ,4,1,0.,24.0,0.,24.0,0.,24.0,0.,24.0
1980-11-16 06:25:10.900 ,4,0,0.,24.0,0.,24.0,0.,24.0,0.,24.0
1980-11-16 06:25:34.900 ,5,1,0.,24.0,0.,24.0,0.,24.0,0.,24.0
1980-11-16 06:25:58.900 ,5,0,0.,24.0,0.,24.0,0.,24.0,0.,24.0
1980-11-16 06:26:22.900 ,6,1,0.,24.0,0.,24.0,0.,24.0,0.,24.0
1980-11-16 06:26:46.900 ,6,0,0.,24.0,0.,24.0,1.,24.0,0.,24.0
1980-11-16 06:27:10.900 ,7,1,0.,24.0,0.,24.0,0.,24.0,0.,24.0
1980-11-16 06:27:34.900 ,7,0,13.,24.0,0.,24.0,0.,24.0,0.,24.0
1980-11-16 06:27:58.900 ,7,1,8.,24.0,0.,24.0,2.,24.0,0.,24.0
1980-11-16 06:28:22.900 ,7,0,13.,24.0,0.,24.0,0.,24.0,0.,24.0
1980-11-16 06:28:46.900 ,6,1,8.,24.0,0.,24.0,1.,24.0,0.,24.0
1980-11-16 06:29:10.900 ,6,0,0.,24.0,0.,24.0,0.,24.0,0.,24.0
1980-11-16 06:29:34.900 ,5,1,0.,24.0,0.,24.0,1.,24.0,0.,24.0
1980-11-16 06:29:58.900 ,5,0,1.,24.0,0.,24.0,1.,24.0,0.,24.0
1980-11-16 06:30:22.900 ,4,1,0.,24.0,0.,24.0,0.,24.0,0.,24.0
1980-11-16 06:30:46.900 ,4,0,0.,24.0,0.,24.0,0.,24.0,0.,24.0
1980-11-16 06:31:10.900 ,3,1,0.,24.0,0.,24.0,1.,24.0,0.,24.0
1980-11-16 06:31:34.900 ,3,0,0.,24.0,0.,24.0,2.,24.0,0.,24.0
1980-11-16 06:31:58.900 ,2,1,0.,24.0,0.,24.0,0.,24.0,0.,24.0
1980-11-16 06:32:22.900 ,2,0,0.,24.0,0.,24.0,0.,24.0,0.,24.0
1980-11-16 06:32:46.900 ,1,1,0.,24.0,0.,24.0,0.,24.0,0.,24.0
1980-11-16 06:33:10.900 ,1,0,0.,24.0,0.,24.0,1.,24.0,0.,24.0
1980-11-16 06:33:34.900 ,0,1,0.,24.0,0.,24.0,1.,24.0,0.,24.0
1980-11-16 06:33:58.900 ,0,0,0.,24.0,0.,24.0,0.,24.0,0.,24.0
1980-11-16 06:34:22.900 ,0,1,0.,24.0,0.,24.0,0.,24.0,0.,24.0
1980-11-16 06:34:46.900 ,0,0,0.,24.0,0.,24.0,0.,24.0,0.,24.0
1980-11-16 06:35:10.900 ,1,1,0.,24.0,0.,24.0,0.,24.0,0.,24.0
1980-11-16 06:35:34.900 ,1,0,0.,24.0,0.,24.0,0.,24.0,0.,24.0
1980-11-16 06:35:58.900 ,2,1,0.,24.0,0.,24.0,0.,24.0,0.,24.0
1980-11-16 06:36:22.900 ,2,0,0.,24.0,0.,24.0,0.,24.0,0.,24.0
1980-11-16 06:36:46.900 ,3,1,0.,24.0,0.,24.0,1.,24.0,0.,24.0
1980-11-16 06:37:10.900 ,3,0,0.,24.0,0.,24.0,1.,24.0,0.,24.0
1980-11-16 06:37:34.900 ,4,1,0.,24.0,0.,24.0,0.,24.0,0.,24.0
1980-11-16 06:37:58.900 ,4,0,0.,24.0,0.,24.0,2.,24.0,0.,24.0
1980-11-16 06:38:22.900 ,5,1,0.,24.0,0.,24.0,1.,24.0,0.,24.0
1980-11-16 06:38:46.900 ,5,0,0.,24.0,0.,24.0,2.,24.0,0.,24.0
1980-11-16 06:39:10.900 ,6,1,0.,24.0,0.,24.0,1.,24.0,0.,24.0
1980-11-16 06:39:34.900 ,6,0,0.,24.0,0.,24.0,0.,24.0,0.,24.0
1980-11-16 06:39:58.900 ,7,1,3.,24.0,0.,24.0,0.,24.0,0.,24.0
1980-11-16 06:40:22.900 ,7,0,10.,24.0,0.,24.0,1.,24.0,0.,24.0
1980-11-16 06:40:46.900 ,7,1,11.,24.0,0.,24.0,0.,24.0,0.,24.0
1980-11-16 06:41:10.900 ,7,0,5.,24.0,0.,24.0,0.,24.0,0.,24.0
1980-11-16 06:41:34.900 ,6,1,11.,24.0,0.,24.0,0.,24.0,0.,24.0
1980-11-16 06:41:58.900 ,6,0,0.,24.0,0.,24.0,0.,24.0,0.,24.0
1980-11-16 06:42:22.900 ,5,1,0.,24.0,0.,24.0,1.,24.0,0.,24.0
1980-11-16 06:42:46.900 ,5,0,0.,24.0,0.,24.0,0.,24.0,0.,24.0
1980-11-16 06:43:10.900 ,4,1,0.,24.0,0.,24.0,0.,24.0,0.,24.0
1980-11-16 06:43:34.900 ,4,0,0.,24.0,0.,24.0,2.,24.0,0.,24.0
1980-11-16 06:43:58.900 ,3,1,0.,24.0,0.,24.0,2.,24.0,0.,24.0
1980-11-16 06:44:22.900 ,3,0,0.,24.0,0.,24.0,1.,24.0,0.,24.0
1980-11-16 06:44:46.900 ,2,1,0.,24.0,0.,24.0,0.,24.0,0.,24.0
1980-11-16 06:45:10.900 ,2,0,0.,24.0,0.,24.0,0.,24.0,0.,24.0
1980-11-16 06:45:34.900 ,1,1,0.,24.0,0.,24.0,0.,24.0,0.,24.0
1980-11-16 06:45:58.900 ,1,0,0.,24.0,0.,24.0,0.,24.0,0.,24.0
1980-11-16 06:46:22.900 ,0,1,0.,24.0,0.,24.0,1.,24.0,0.,24.0
1980-11-16 06:46:46.900 ,0,0,0.,24.0,1.,24.0,0.,24.0,0.,24.0
1980-11-16 06:47:10.900 ,0,1,0.,24.0,0.,24.0,0.,24.0,0.,24.0
1980-11-16 06:47:34.900 ,0,0,0.,24.0,0.,24.0,0.,24.0,0.,24.0
1980-11-16 06:47:58.900 ,1,1,0.,24.0,0.,24.0,0.,24.0,0.,24.0
1980-11-16 06:48:22.900 ,1,0,0.,24.0,0.,24.0,0.,24.0,0.,24.0
1980-11-16 06:48:46.900 ,2,1,0.,24.0,0.,24.0,0.,24.0,0.,24.0
1980-11-16 06:49:10.900 ,2,0,0.,24.0,0.,24.0,0.,24.0,0.,24.0
1980-11-16 06:49:34.900 ,3,1,1.,24.0,0.,24.0,2.,24.0,0.,24.0
1980-11-16 06:49:58.900 ,3,0,0.,24.0,0.,24.0,0.,24.0,0.,24.0
1980-11-16 06:50:22.900 ,4,1,0.,24.0,0.,24.0,2.,24.0,0.,24.0
1980-11-16 06:50:46.900 ,4,0,0.,24.0,0.,24.0,0.,24.0,0.,24.0
1980-11-16 06:51:10.900 ,5,1,0.,24.0,0.,24.0,0.,24.0,0.,24.0
1980-11-16 06:51:34.900 ,5,0,0.,24.0,0.,24.0,0.,24.0,0.,24.0
1980-11-16 06:51:58.900 ,6,1,0.,24.0,0.,24.0,0.,24.0,0.,24.0
1980-11-16 06:52:22.900 ,6,0,0.,24.0,0.,24.0,2.,24.0,0.,24.0
1980-11-16 06:52:46.900 ,7,1,3.,24.0,0.,24.0,1.,24.0,0.,24.0
1980-11-16 06:53:10.900 ,7,0,10.,24.0,0.,24.0,0.,24.0,0.,24.0
1980-11-16 06:53:34.900 ,7,1,14.,24.0,0.,24.0,0.,24.0,0.,24.0
1980-11-16 06:53:58.900 ,7,0,9.,24.0,0.,24.0,0.,24.0,0.,24.0
1980-11-16 06:54:22.900 ,6,1,7.,24.0,0.,24.0,1.,24.0,0.,24.0
1980-11-16 06:54:46.900 ,6,0,0.,24.0,0.,24.0,1.,24.0,0.,24.0
1980-11-16 06:55:10.900 ,5,1,0.,24.0,0.,24.0,0.,24.0,0.,24.0
1980-11-16 06:55:34.900 ,5,0,0.,24.0,0.,24.0,1.,24.0,0.,24.0
1980-11-16 06:55:58.900 ,4,1,0.,24.0,0.,24.0,0.,24.0,0.,24.0
1980-11-16 06:56:22.900 ,4,0,0.,24.0,0.,24.0,0.,24.0,0.,24.0
1980-11-16 06:56:46.900 ,3,1,0.,24.0,0.,24.0,0.,24.0,0.,24.0
1980-11-16 06:57:10.900 ,3,0,0.,24.0,0.,24.0,3.,24.0,0.,24.0
1980-11-16 06:57:34.900 ,2,1,0.,24.0,0.,24.0,0.,24.0,0.,24.0
1980-11-16 06:57:58.900 ,2,0,0.,24.0,0.,24.0,0.,24.0,0.,24.0
1980-11-16 06:58:22.900 ,1,1,0.,24.0,0.,24.0,0.,24.0,0.,24.0
1980-11-16 06:58:46.900 ,1,0,0.,24.0,0.,24.0,0.,24.0,0.,24.0
1980-11-16 06:59:10.900 ,0,1,0.,24.0,0.,24.0,0.,24.0,0.,24.0
1980-11-16 06:59:34.900 ,0,0,0.,24.0,0.,24.0,0.,24.0,0.,24.0
1980-11-16 06:59:58.900 ,0,1,0.,24.0,0.,24.0,2.,24.0,0.,24.0
1980-11-16 07:00:22.900 ,0,0,0.,24.0,0.,24.0,0.,24.0,0.,24.0
1980-11-16 07:00:46.900 ,1,1,0.,24.0,0.,24.0,0.,24.0,0.,24.0
1980-11-16 07:01:10.900 ,1,0,0.,24.0,0.,24.0,0.,24.0,0.,24.0
1980-11-16 07:01:34.900 ,2,1,0.,24.0,0.,24.0,0.,24.0,0.,24.0
1980-11-16 07:01:58.900 ,2,0,0.,24.0,0.,24.0,0.,24.0,0.,24.0
1980-11-16 07:02:22.900 ,3,1,0.,24.0,0.,24.0,1.,24.0,0.,24.0
1980-11-16 07:02:46.900 ,3,0,0.,24.0,0.,24.0,0.,24.0,0.,24.0
1980-11-16 07:03:10.900 ,4,1,0.,24.0,0.,24.0,1.,24.0,0.,24.0
1980-11-16 07:03:34.900 ,4,0,0.,24.0,0.,24.0,0.,24.0,0.,24.0
1980-11-16 07:03:58.900 ,5,1,0.,24.0,0.,24.0,1.,24.0,0.,24.0
1980-11-16 07:04:22.900 ,5,0,0.,24.0,0.,24.0,1.,24.0,0.,24.0
1980-11-16 07:04:46.900 ,6,1,0.,24.0,0.,24.0,0.,24.0,0.,24.0
1980-11-16 07:05:10.900 ,6,0,0.,24.0,0.,24.0,0.,24.0,0.,24.0
1980-11-16 07:05:34.900 ,7,1,1.,24.0,0.,24.0,2.,24.0,0.,24.0
1980-11-16 07:05:58.900 ,7,0,8.,24.0,0.,24.0,2.,24.0,0.,24.0
1980-11-16 07:06:22.900 ,7,1,16.,24.0,0.,24.0,0.,24.0,0.,24.0
1980-11-16 07:06:46.900 ,7,0,13.,24.0,0.,24.0,0.,24.0,0.,24.0
1980-11-16 07:07:10.900 ,6,1,9.,24.0,0.,24.0,1.,24.0,0.,24.0
1980-11-16 07:07:34.900 ,6,0,0.,24.0,0.,24.0,0.,24.0,0.,24.0
1980-11-16 07:07:58.900 ,5,1,0.,24.0,0.,24.0,1.,24.0,0.,24.0
1980-11-16 07:08:22.900 ,5,0,0.,24.0,0.,24.0,0.,24.0,0.,24.0
1980-11-16 07:08:46.900 ,4,1,0.,24.0,0.,24.0,0.,24.0,0.,24.0
1980-11-16 07:09:10.900 ,4,0,0.,24.0,0.,24.0,0.,24.0,0.,24.0
1980-11-16 07:09:34.900 ,3,1,0.,24.0,0.,24.0,0.,24.0,0.,24.0
1980-11-16 07:09:58.900 ,3,0,0.,24.0,0.,24.0,0.,24.0,0.,24.0
1980-11-16 07:10:22.900 ,2,1,0.,24.0,0.,24.0,0.,24.0,0.,24.0
1980-11-16 07:10:46.900 ,2,0,0.,24.0,0.,24.0,0.,24.0,0.,24.0
1980-11-16 07:11:10.900 ,1,1,0.,24.0,0.,24.0,0.,24.0,0.,24.0
1980-11-16 07:11:34.900 ,1,0,0.,24.0,0.,24.0,0.,24.0,0.,24.0
1980-11-16 07:11:58.900 ,0,1,0.,24.0,0.,24.0,0.,24.0,0.,24.0
1980-11-16 07:12:22.900 ,0,0,0.,24.0,0.,24.0,0.,24.0,0.,24.0
1980-11-16 07:12:46.900 ,0,1,0.,24.0,0.,24.0,1.,24.0,0.,24.0
1980-11-16 07:13:10.900 ,0,0,0.,24.0,0.,24.0,1.,24.0,0.,24.0
1980-11-16 07:13:34.900 ,1,1,0.,24.0,0.,24.0,0.,24.0,0.,24.0
1980-11-16 07:13:58.900 ,1,0,0.,24.0,0.,24.0,0.,24.0,0.,24.0
1980-11-16 07:14:22.900 ,2,1,0.,24.0,0.,24.0,0.,24.0,0.,24.0
1980-11-16 07:14:46.900 ,2,0,0.,24.0,0.,24.0,0.,24.0,0.,24.0
1980-11-16 07:15:10.900 ,3,1,0.,24.0,0.,24.0,0.,24.0,0.,24.0
1980-11-16 07:15:34.900 ,3,0,0.,24.0,0.,24.0,0.,24.0,0.,24.0
1980-11-16 07:15:58.900 ,4,1,0.,24.0,0.,24.0,0.,24.0,0.,24.0
1980-11-16 07:16:22.900 ,4,0,0.,24.0,0.,24.0,0.,24.0,0.,24.0
1980-11-16 07:16:46.900 ,5,1,0.,24.0,0.,24.0,0.,24.0,0.,24.0
1980-11-16 07:17:10.900 ,5,0,0.,24.0,0.,24.0,0.,24.0,0.,24.0
1980-11-16 07:17:34.900 ,6,1,0.,24.0,0.,24.0,0.,24.0,0.,24.0
1980-11-16 07:17:58.900 ,6,0,0.,24.0,0.,24.0,1.,24.0,0.,24.0
1980-11-16 07:18:22.900 ,7,1,1.,24.0,0.,24.0,1.,24.0,0.,24.0
1980-11-16 07:18:46.900 ,7,0,6.,24.0,0.,24.0,1.,24.0,0.,24.0
1980-11-16 07:19:10.900 ,7,1,9.,24.0,0.,24.0,1.,24.0,0.,24.0
1980-11-16 07:19:34.900 ,7,0,14.,24.0,0.,24.0,0.,24.0,0.,24.0
1980-11-16 07:19:58.900 ,6,1,6.,24.0,0.,24.0,0.,24.0,0.,24.0
1980-11-16 07:20:22.900 ,6,0,0.,24.0,0.,24.0,0.,24.0,0.,24.0
1980-11-16 07:20:46.900 ,5,1,0.,24.0,0.,24.0,0.,24.0,0.,24.0
1980-11-16 07:21:10.900 ,5,0,0.,24.0,0.,24.0,3.,24.0,0.,24.0
1980-11-16 07:21:34.900 ,4,1,0.,24.0,0.,24.0,0.,24.0,0.,24.0
1980-11-16 07:21:58.900 ,4,0,0.,24.0,0.,24.0,0.,24.0,0.,24.0
1980-11-16 07:22:22.900 ,3,1,0.,24.0,0.,24.0,0.,24.0,0.,24.0
1980-11-16 07:22:46.900 ,3,0,0.,24.0,0.,24.0,0.,24.0,0.,24.0
1980-11-16 07:23:10.900 ,2,1,0.,24.0,0.,24.0,0.,24.0,0.,24.0
1980-11-16 07:23:34.900 ,2,0,0.,24.0,0.,24.0,0.,24.0,0.,24.0
1980-11-16 07:23:58.900 ,1,1,0.,24.0,0.,24.0,0.,24.0,0.,24.0
1980-11-16 07:24:22.900 ,1,0,0.,24.0,0.,24.0,0.,24.0,0.,24.0
1980-11-16 07:24:46.900 ,0,1,0.,24.0,0.,24.0,0.,24.0,0.,24.0
1980-11-16 07:25:10.900 ,0,0,0.,24.0,0.,24.0,0.,24.0,0.,24.0
1980-11-16 07:25:34.900 ,0,1,0.,24.0,0.,24.0,1.,24.0,0.,24.0
1980-11-16 07:25:58.900 ,0,0,0.,24.0,0.,24.0,0.,24.0,0.,24.0
1980-11-16 07:26:22.900 ,1,1,0.,24.0,0.,24.0,0.,24.0,0.,24.0
1980-11-16 07:26:46.900 ,1,0,0.,24.0,0.,24.0,1.,24.0,0.,24.0
1980-11-16 07:27:10.900 ,2,1,0.,24.0,0.,24.0,1.,24.0,0.,24.0
1980-11-16 07:27:34.900 ,2,0,0.,24.0,0.,24.0,0.,24.0,0.,24.0
1980-11-16 07:27:58.900 ,3,1,0.,24.0,0.,24.0,0.,24.0,0.,24.0
1980-11-16 07:28:22.900 ,3,0,1.,24.0,0.,24.0,0.,24.0,0.,24.0
1980-11-16 07:28:46.900 ,4,1,0.,24.0,0.,24.0,1.,24.0,0.,24.0
1980-11-16 07:29:10.900 ,4,0,0.,24.0,0.,24.0,0.,24.0,0.,24.0
1980-11-16 07:29:34.900 ,5,1,0.,24.0,0.,24.0,1.,24.0,0.,24.0
1980-11-16 07:29:58.900 ,5,0,0.,24.0,0.,24.0,1.,24.0,0.,24.0
1980-11-16 07:30:22.900 ,6,1,0.,24.0,0.,24.0,1.,24.0,0.,24.0
1980-11-16 07:30:46.900 ,6,0,0.,24.0,0.,24.0,1.,24.0,0.,24.0
1980-11-16 07:31:10.900 ,7,1,5.,24.0,0.,24.0,0.,24.0,0.,24.0
1980-11-16 07:31:34.900 ,7,0,10.,24.0,0.,24.0,0.,24.0,0.,24.0
1980-11-16 07:31:58.900 ,7,1,14.,24.0,0.,24.0,3.,24.0,0.,24.0
1980-11-16 07:32:22.900 ,7,0,9.,24.0,0.,24.0,0.,24.0,0.,24.0
1980-11-16 07:32:46.900 ,6,1,6.,24.0,0.,24.0,1.,24.0,0.,24.0
1980-11-16 07:33:10.900 ,6,0,0.,24.0,0.,24.0,1.,24.0,0.,24.0
1980-11-16 07:33:34.900 ,5,1,0.,24.0,0.,24.0,1.,24.0,0.,24.0
1980-11-16 07:33:58.900 ,5,0,0.,24.0,0.,24.0,0.,24.0,0.,24.0
1980-11-16 07:34:22.900 ,4,1,0.,24.0,0.,24.0,0.,24.0,0.,24.0
1980-11-16 07:34:46.900 ,4,0,0.,24.0,0.,24.0,1.,24.0,0.,24.0
1980-11-16 07:35:10.900 ,3,1,0.,24.0,0.,24.0,1.,24.0,0.,24.0
1980-11-16 07:35:34.900 ,3,0,0.,24.0,0.,24.0,0.,24.0,0.,24.0
1980-11-16 07:35:58.900 ,2,1,0.,24.0,0.,24.0,1.,24.0,0.,24.0
1980-11-16 07:36:22.900 ,2,0,0.,24.0,0.,24.0,0.,24.0,0.,24.0
1980-11-16 07:36:46.900 ,1,1,0.,24.0,0.,24.0,0.,24.0,0.,24.0
1980-11-16 07:37:10.900 ,1,0,0.,24.0,0.,24.0,0.,24.0,0.,24.0
1980-11-16 07:37:34.900 ,0,1,0.,24.0,0.,24.0,0.,24.0,0.,24.0
1980-11-16 07:37:58.900 ,0,0,0.,24.0,0.,24.0,1.,24.0,0.,24.0
1980-11-16 07:38:22.900 ,0,1,0.,24.0,0.,24.0,0.,24.0,0.,24.0
1980-11-16 07:38:46.900 ,0,0,0.,24.0,0.,24.0,1.,24.0,0.,24.0
1980-11-16 07:39:10.900 ,1,1,0.,24.0,0.,24.0,0.,24.0,0.,24.0
1980-11-16 07:39:34.900 ,1,0,0.,24.0,0.,24.0,0.,24.0,0.,24.0
1980-11-16 07:39:58.900 ,2,1,0.,24.0,0.,24.0,0.,24.0,0.,24.0
1980-11-16 07:40:22.900 ,2,0,0.,24.0,0.,24.0,1.,24.0,0.,24.0
1980-11-16 07:40:46.900 ,3,1,0.,24.0,0.,24.0,0.,24.0,0.,24.0
1980-11-16 07:41:10.900 ,3,0,0.,24.0,0.,24.0,2.,24.0,0.,24.0
1980-11-16 07:41:34.900 ,4,1,0.,24.0,0.,24.0,0.,24.0,0.,24.0
1980-11-16 07:41:58.900 ,4,0,1.,24.0,0.,24.0,0.,24.0,0.,24.0
1980-11-16 07:42:22.900 ,5,1,0.,24.0,0.,24.0,0.,24.0,0.,24.0
1980-11-16 07:42:46.900 ,5,0,0.,24.0,0.,24.0,2.,24.0,0.,24.0
1980-11-16 07:43:10.900 ,6,1,0.,24.0,0.,24.0,0.,24.0,0.,24.0
1980-11-16 07:43:34.900 ,6,0,0.,24.0,0.,24.0,0.,24.0,0.,24.0
1980-11-16 07:43:58.900 ,7,1,1.,24.0,0.,24.0,0.,24.0,0.,24.0
1980-11-16 07:44:22.900 ,7,0,12.,24.0,0.,24.0,0.,24.0,0.,24.0
1980-11-16 07:44:46.900 ,7,1,9.,24.0,0.,24.0,0.,24.0,0.,24.0
1980-11-16 07:45:10.900 ,7,0,5.,24.0,0.,24.0,1.,24.0,0.,24.0
1980-11-16 07:45:34.900 ,6,1,7.,24.0,0.,24.0,0.,24.0,0.,24.0
1980-11-16 07:45:58.900 ,6,0,0.,24.0,0.,24.0,0.,24.0,0.,24.0
1980-11-16 07:46:22.900 ,0,0,0.,24.0,0.,24.0,1.,24.0,0.,24.0
1980-11-16 07:46:46.900 ,0,0,0.,24.0,0.,24.0,0.,24.0,0.,24.0
1980-11-16 07:47:10.900 ,4,1,0.,24.0,0.,24.0,0.,24.0,0.,24.0
1980-11-16 07:47:34.900 ,4,0,0.,24.0,0.,24.0,0.,24.0,0.,24.0
1980-11-16 07:47:58.900 ,3,1,0.,24.0,0.,24.0,0.,24.0,0.,24.0
1980-11-16 07:48:22.900 ,3,0,0.,24.0,0.,24.0,0.,24.0,0.,24.0
1980-11-16 07:48:46.900 ,2,1,0.,24.0,0.,24.0,0.,24.0,0.,24.0
1980-11-16 07:49:10.900 ,2,0,0.,24.0,0.,24.0,1.,24.0,0.,24.0
1980-11-16 07:49:34.900 ,1,1,0.,24.0,0.,24.0,0.,24.0,0.,24.0
1980-11-16 07:49:58.900 ,1,0,0.,24.0,0.,24.0,1.,24.0,0.,24.0
1980-11-16 07:50:22.900 ,0,1,0.,24.0,0.,24.0,1.,24.0,0.,24.0
1980-11-16 07:50:46.900 ,0,0,0.,24.0,0.,24.0,1.,24.0,0.,24.0
1980-11-16 07:51:10.900 ,0,1,0.,24.0,0.,24.0,1.,24.0,0.,24.0
1980-11-16 07:51:34.900 ,0,0,0.,24.0,0.,24.0,0.,24.0,0.,24.0
1980-11-16 07:51:58.900 ,1,1,0.,24.0,0.,24.0,1.,24.0,0.,24.0
1980-11-16 07:52:22.900 ,1,0,0.,24.0,0.,24.0,0.,24.0,0.,24.0
1980-11-16 07:52:46.900 ,2,1,0.,24.0,0.,24.0,1.,24.0,0.,24.0
1980-11-16 07:53:10.900 ,2,0,0.,24.0,0.,24.0,0.,24.0,0.,24.0
1980-11-16 07:53:34.900 ,3,1,0.,24.0,0.,24.0,0.,24.0,0.,24.0
1980-11-16 07:53:58.900 ,3,0,0.,24.0,0.,24.0,0.,24.0,0.,24.0
1980-11-16 07:54:22.900 ,4,1,0.,24.0,0.,24.0,1.,24.0,0.,24.0
1980-11-16 07:54:46.900 ,4,0,0.,24.0,0.,24.0,0.,24.0,0.,24.0
1980-11-16 07:55:10.900 ,5,1,0.,24.0,0.,24.0,0.,24.0,0.,24.0
1980-11-16 07:55:34.900 ,5,0,0.,24.0,0.,24.0,0.,24.0,0.,24.0
1980-11-16 07:55:58.900 ,6,1,0.,24.0,0.,24.0,0.,24.0,0.,24.0
1980-11-16 07:56:22.900 ,6,0,3.,24.0,0.,24.0,0.,24.0,0.,24.0
1980-11-16 07:56:46.900 ,7,1,1.,24.0,0.,24.0,0.,24.0,0.,24.0
1980-11-16 07:57:10.900 ,7,0,5.,24.0,0.,24.0,1.,24.0,0.,24.0
1980-11-16 07:57:34.900 ,7,1,9.,24.0,0.,24.0,0.,24.0,0.,24.0
1980-11-16 07:57:58.900 ,7,0,10.,24.0,0.,24.0,1.,24.0,0.,24.0
1980-11-16 07:58:22.900 ,6,1,8.,24.0,0.,24.0,2.,24.0,0.,24.0
1980-11-16 07:58:46.900 ,6,0,0.,24.0,0.,24.0,1.,24.0,0.,24.0
1980-11-16 07:59:10.900 ,5,1,1.,24.0,0.,24.0,1.,24.0,0.,24.0
1980-11-16 07:59:34.900 ,5,0,0.,24.0,0.,24.0,0.,24.0,0.,24.0
1980-11-16 07:59:58.900 ,4,1,0.,24.0,0.,24.0,0.,24.0,0.,24.0
1980-11-16 08:00:22.900 ,4,0,0.,24.0,0.,24.0,0.,24.0,0.,24.0
1980-11-16 08:00:46.900 ,3,1,0.,24.0,0.,24.0,0.,24.0,0.,24.0
1980-11-16 08:01:10.900 ,3,0,0.,24.0,0.,24.0,0.,24.0,0.,24.0
1980-11-16 08:01:34.900 ,2,1,0.,24.0,0.,24.0,1.,24.0,0.,24.0
1980-11-16 08:01:58.900 ,2,0,0.,24.0,0.,24.0,1.,24.0,0.,24.0
1980-11-16 08:02:22.900 ,1,1,0.,24.0,0.,24.0,0.,24.0,0.,24.0
1980-11-16 08:02:46.900 ,1,0,0.,24.0,0.,24.0,1.,24.0,0.,24.0
1980-11-16 08:03:10.900 ,0,1,0.,24.0,0.,24.0,1.,24.0,0.,24.0
1980-11-16 08:03:34.900 ,0,0,0.,24.0,0.,24.0,0.,24.0,0.,24.0
1980-11-16 08:03:58.900 ,0,1,1.,24.0,0.,24.0,0.,24.0,0.,24.0
1980-11-16 08:04:22.900 ,0,0,0.,24.0,0.,24.0,0.,24.0,0.,24.0
1980-11-16 08:04:46.900 ,1,1,0.,24.0,0.,24.0,0.,24.0,0.,24.0
1980-11-16 08:05:10.900 ,1,0,0.,24.0,0.,24.0,0.,24.0,0.,24.0
1980-11-16 08:05:34.900 ,2,1,0.,24.0,0.,24.0,0.,24.0,0.,24.0
1980-11-16 08:05:58.900 ,2,0,0.,24.0,0.,24.0,0.,24.0,0.,24.0
1980-11-16 08:06:22.900 ,3,1,0.,24.0,0.,24.0,0.,24.0,0.,24.0
1980-11-16 08:06:46.900 ,3,0,1.,24.0,0.,24.0,1.,24.0,0.,24.0
1980-11-16 08:07:10.900 ,4,1,0.,24.0,0.,24.0,0.,24.0,0.,24.0
1980-11-16 08:07:34.900 ,4,0,0.,24.0,0.,24.0,0.,24.0,0.,24.0
1980-11-16 08:07:58.900 ,5,1,1.,24.0,0.,24.0,0.,24.0,0.,24.0
1980-11-16 08:08:22.900 ,5,0,0.,24.0,0.,24.0,1.,24.0,0.,24.0
1980-11-16 08:08:46.900 ,6,1,0.,24.0,0.,24.0,0.,24.0,0.,24.0
1980-11-16 08:09:10.900 ,6,0,0.,24.0,0.,24.0,0.,24.0,0.,24.0
1980-11-16 08:09:34.900 ,7,1,4.,24.0,1.,24.0,1.,24.0,0.,24.0
1980-11-16 08:09:58.900 ,7,0,9.,24.0,0.,24.0,0.,24.0,0.,24.0
1980-11-16 08:10:22.900 ,7,1,10.,24.0,0.,24.0,1.,24.0,0.,24.0
1980-11-16 08:10:46.900 ,7,0,8.,24.0,0.,24.0,0.,24.0,0.,24.0
1980-11-16 08:11:10.900 ,6,1,6.,24.0,0.,24.0,1.,24.0,0.,24.0
1980-11-16 08:11:34.900 ,6,0,0.,24.0,0.,24.0,0.,24.0,0.,24.0
1980-11-16 08:11:58.900 ,5,1,0.,24.0,0.,24.0,2.,24.0,0.,24.0
1980-11-16 08:12:22.900 ,5,0,0.,24.0,0.,24.0,2.,24.0,0.,24.0
1980-11-16 08:12:46.900 ,4,1,0.,24.0,0.,24.0,0.,24.0,0.,24.0
1980-11-16 08:13:10.900 ,4,0,0.,24.0,0.,24.0,2.,24.0,0.,24.0
1980-11-16 08:13:34.900 ,3,1,0.,24.0,0.,24.0,2.,24.0,0.,24.0
1980-11-16 08:13:58.900 ,3,0,0.,24.0,0.,24.0,0.,24.0,0.,24.0
1980-11-16 08:14:22.900 ,2,1,0.,24.0,0.,24.0,1.,24.0,0.,24.0
1980-11-16 08:14:46.900 ,2,0,0.,24.0,0.,24.0,0.,24.0,0.,24.0
1980-11-16 08:15:10.900 ,1,1,0.,24.0,0.,24.0,0.,24.0,0.,24.0
1980-11-16 08:15:34.900 ,1,0,0.,24.0,0.,24.0,1.,24.0,0.,24.0
1980-11-16 08:15:58.900 ,0,1,0.,24.0,0.,24.0,0.,24.0,0.,24.0
1980-11-16 08:16:22.900 ,0,0,,0,,0,,0,,0
1980-11-16 08:16:46.900 ,0,1,0.,24.0,0.,24.0,2.,24.0,0.,24.0
1980-11-16 08:17:10.900 ,0,0,0.,24.0,0.,24.0,0.,24.0,0.,24.0
1980-11-16 08:17:34.900 ,1,1,0.,24.0,0.,24.0,0.,24.0,0.,24.0
1980-11-16 08:17:58.900 ,1,0,0.,24.0,0.,24.0,1.,24.0,0.,24.0
1980-11-16 08:18:22.900 ,2,1,0.,24.0,0.,24.0,0.,24.0,0.,24.0
1980-11-16 08:18:46.900 ,2,0,0.,24.0,0.,24.0,0.,24.0,0.,24.0
1980-11-16 08:19:10.900 ,3,1,0.,24.0,0.,24.0,0.,24.0,0.,24.0
1980-11-16 08:19:34.900 ,3,0,0.,24.0,0.,24.0,0.,24.0,0.,24.0
1980-11-16 08:19:58.900 ,4,1,0.,24.0,0.,24.0,1.,24.0,0.,24.0
1980-11-16 08:20:22.900 ,4,0,0.,24.0,0.,24.0,1.,24.0,0.,24.0
1980-11-16 08:20:46.900 ,5,1,0.,24.0,0.,24.0,0.,24.0,0.,24.0
1980-11-16 08:21:10.900 ,5,0,0.,24.0,0.,24.0,1.,24.0,0.,24.0
1980-11-16 08:21:34.900 ,6,1,0.,24.0,0.,24.0,0.,24.0,0.,24.0
1980-11-16 08:21:58.900 ,6,0,0.,24.0,0.,24.0,0.,24.0,0.,24.0
1980-11-16 08:22:22.900 ,7,1,2.,24.0,1.,24.0,0.,24.0,0.,24.0
1980-11-16 08:22:46.900 ,7,0,14.,24.0,0.,24.0,0.,24.0,0.,24.0
1980-11-16 08:23:10.900 ,7,1,6.,24.0,0.,24.0,0.,24.0,0.,24.0
1980-11-16 08:23:34.900 ,7,0,9.,24.0,0.,24.0,1.,24.0,0.,24.0
1980-11-16 08:23:58.900 ,6,1,8.,24.0,0.,24.0,1.,24.0,0.,24.0
1980-11-16 08:24:22.900 ,6,0,0.,24.0,0.,24.0,0.,24.0,0.,24.0
1980-11-16 08:24:46.900 ,5,1,0.,24.0,0.,24.0,0.,24.0,0.,24.0
1980-11-16 08:25:10.900 ,5,0,0.,24.0,0.,24.0,0.,24.0,0.,24.0
1980-11-16 08:25:34.900 ,4,1,0.,24.0,0.,24.0,0.,24.0,0.,24.0
1980-11-16 08:25:58.900 ,4,0,0.,24.0,0.,24.0,2.,24.0,0.,24.0
1980-11-16 08:26:22.900 ,3,1,0.,24.0,0.,24.0,2.,24.0,0.,24.0
1980-11-16 08:26:46.900 ,3,0,0.,24.0,0.,24.0,0.,24.0,0.,24.0
1980-11-16 08:27:10.900 ,2,1,0.,24.0,0.,24.0,0.,24.0,0.,24.0
1980-11-16 08:27:34.900 ,2,0,0.,24.0,0.,24.0,1.,24.0,0.,24.0
1980-11-16 08:27:58.900 ,1,1,0.,24.0,0.,24.0,1.,24.0,0.,24.0
1980-11-16 08:28:22.900 ,1,0,0.,24.0,0.,24.0,1.,24.0,0.,24.0
1980-11-16 08:28:46.900 ,0,1,0.,24.0,0.,24.0,0.,24.0,0.,24.0
1980-11-16 08:29:10.900 ,0,0,0.,24.0,0.,24.0,0.,24.0,0.,24.0
1980-11-16 08:29:34.900 ,0,1,0.,24.0,0.,24.0,1.,24.0,0.,24.0
1980-11-16 08:29:58.900 ,0,0,0.,24.0,0.,24.0,0.,24.0,0.,24.0
1980-11-16 08:30:22.900 ,1,1,0.,24.0,0.,24.0,1.,24.0,0.,24.0
1980-11-16 08:30:46.900 ,1,0,0.,24.0,0.,24.0,1.,24.0,0.,24.0
1980-11-16 08:31:10.900 ,2,1,0.,24.0,0.,24.0,1.,24.0,0.,24.0
1980-11-16 08:31:34.900 ,2,0,0.,24.0,0.,24.0,0.,24.0,0.,24.0
1980-11-16 08:31:58.900 ,3,1,0.,24.0,0.,24.0,0.,24.0,0.,24.0
1980-11-16 08:32:22.900 ,3,0,0.,24.0,0.,24.0,1.,24.0,0.,24.0
1980-11-16 08:32:46.900 ,4,1,0.,24.0,0.,24.0,1.,24.0,0.,24.0
1980-11-16 08:33:10.900 ,4,0,0.,24.0,0.,24.0,1.,24.0,0.,24.0
1980-11-16 08:33:34.900 ,5,1,0.,24.0,0.,24.0,0.,24.0,0.,24.0
1980-11-16 08:33:58.900 ,5,0,0.,24.0,1.,24.0,1.,24.0,0.,24.0
1980-11-16 08:34:22.900 ,6,1,0.,24.0,0.,24.0,1.,24.0,0.,24.0
1980-11-16 08:34:46.900 ,0,0,0.,24.0,1.,24.0,0.,24.0,0.,24.0
1980-11-16 08:35:10.900 ,7,1,3.,24.0,0.,24.0,0.,24.0,0.,24.0